,,PA_Meas_PMT16A,,PR_Meas_QMR101_102,,RH_Meas_QMH101,,SR_Meas_QMS101,,TA_Meas_QMH101,,GenWind,,GenWind,
time,status,PA,status,PR,status,RH,status,SR,status,TA,status,DirAvg,status,SpdAvg,
2012-03-14, 00:00:04,VALID,918.982,VALID,0,VALID,87.1661,VALID,0,VALID,21.0454,VALID,131,VALID,1.96367,
2012-03-14, 00:01:04,VALID,918.941,VALID,0,VALID,87.1128,VALID,0,VALID,21.0454,VALID,115,VALID,1.02773,
2012-03-14, 00:02:04,VALID,918.955,VALID,0,VALID,86.7621,VALID,0,VALID,21.086,VALID,135,VALID,2.22539,
2012-03-14, 00:03:04,VALID,918.911,VALID,0,VALID,86.541,VALID,0,VALID,21.125,VALID,150,VALID,1.81875,
2012-03-14, 00:04:04,VALID,918.914,VALID,0,VALID,86.3962,VALID,0,VALID,21.1039,VALID,139,VALID,1.44258,
2012-03-14, 00:05:04,VALID,918.885,VALID,0,VALID,86.198,VALID,0,VALID,21.1445,VALID,128,VALID,1.5,
2012-03-14, 00:06:04,VALID,918.866,VALID,0,VALID,86.0836,VALID,0,VALID,21.164,VALID,128,VALID,0.801172,
2012-03-14, 00:07:04,VALID,918.885,VALID,0,VALID,85.5424,VALID,0,VALID,21.164,VALID,159,VALID,1.55977,
2012-03-14, 00:08:04,VALID,918.871,VALID,0,VALID,85.2374,VALID,0,VALID,21.1836,VALID,150,VALID,1.07305,
2012-03-14, 00:09:04,VALID,918.851,VALID,0,VALID,84.7724,VALID,0,VALID,21.2226,VALID,127,VALID,1.75469,
2012-03-14, 00:10:04,VALID,918.87,VALID,0,VALID,84.841,VALID,0,VALID,21.2616,VALID,132,VALID,1.44297,
2012-03-14, 00:11:04,VALID,918.825,VALID,0,VALID,84.1854,VALID,0,VALID,21.2616,VALID,131,VALID,2.54492,
2012-03-14, 00:12:04,VALID,918.822,VALID,0,VALID,84.1549,VALID,0,VALID,21.2811,VALID,145,VALID,1.59883,
2012-03-14, 00:13:04,VALID,918.802,VALID,0,VALID,84.6123,VALID,0,VALID,21.3022,VALID,108,VALID,1.50195,
2012-03-14, 00:14:04,VALID,918.835,VALID,0,VALID,84.8105,VALID,0,VALID,21.2827,VALID,113,VALID,1.76797,
2012-03-14, 00:15:04,VALID,918.799,VALID,0,VALID,85.2222,VALID,0,VALID,21.2226,VALID,113,VALID,1.6043,
2012-03-14, 00:16:04,VALID,918.81,VALID,0,VALID,84.2845,VALID,0,VALID,21.2015,VALID,118,VALID,3.0707,
2012-03-14, 00:17:04,VALID,918.839,VALID,0,VALID,84.0405,VALID,0,VALID,21.3006,VALID,110,VALID,0.939062,
2012-03-14, 00:18:04,VALID,918.864,VALID,0,VALID,83.7737,VALID,0,VALID,21.3396,VALID,128,VALID,1.8582,
2012-03-14, 00:19:04,VALID,918.826,VALID,0,VALID,83.4612,VALID,0,VALID,21.3185,VALID,114,VALID,1.90039,
2012-03-14, 00:20:04,VALID,918.817,VALID,0,VALID,83.9796,VALID,0,VALID,21.3006,VALID,123,VALID,1.82773,
2012-03-14, 00:21:04,VALID,918.835,VALID,0,VALID,83.5755,VALID,0,VALID,21.3217,VALID,116,VALID,2.2625,
2012-03-14, 00:22:04,VALID,918.823,VALID,0,VALID,83.8576,VALID,0,VALID,21.3201,VALID,126,VALID,1.76328,
2012-03-14, 00:23:04,VALID,918.82,VALID,0,VALID,83.4612,VALID,0,VALID,21.3185,VALID,135,VALID,2.74688,
2012-03-14, 00:24:04,VALID,918.867,VALID,0,VALID,83.1029,VALID,0,VALID,21.3981,VALID,147,VALID,1.58477,
2012-03-14, 00:25:04,VALID,918.848,VALID,0,VALID,82.775,VALID,0,VALID,21.4778,VALID,126,VALID,2.24961,
2012-03-14, 00:26:04,VALID,918.859,VALID,0,VALID,82.7674,VALID,0,VALID,21.4567,VALID,135,VALID,1.56953,
2012-03-14, 00:27:04,VALID,918.831,VALID,0,VALID,83.0495,VALID,0,VALID,21.4372,VALID,123,VALID,1.89492,
2012-03-14, 00:28:04,VALID,918.847,VALID,0,VALID,83.7508,VALID,0,VALID,21.3981,VALID,118,VALID,1.48086,
2012-03-14, 00:29:04,VALID,918.855,VALID,0,VALID,83.85,VALID,0,VALID,21.3396,VALID,127,VALID,1.92109,
2012-03-14, 00:30:04,VALID,918.844,VALID,0,VALID,83.8576,VALID,0,VALID,21.299,VALID,137,VALID,2.05039,
2012-03-14, 00:31:04,VALID,918.833,VALID,0,VALID,83.5145,VALID,0,VALID,21.3201,VALID,124,VALID,2.19062,
2012-03-14, 00:32:04,VALID,918.833,VALID,0,VALID,83.789,VALID,0,VALID,21.3201,VALID,119,VALID,1.89375,
2012-03-14, 00:33:04,VALID,918.81,VALID,0,VALID,84.0558,VALID,0,VALID,21.3006,VALID,125,VALID,1.62344,
2012-03-14, 00:34:04,VALID,918.835,VALID,0,VALID,83.8652,VALID,0,VALID,21.3006,VALID,117,VALID,1.68242,
2012-03-14, 00:35:04,VALID,918.83,VALID,0,VALID,83.9491,VALID,0,VALID,21.3022,VALID,131,VALID,1.68125,
2012-03-14, 00:36:04,VALID,918.799,VALID,0,VALID,83.789,VALID,0,VALID,21.2811,VALID,129,VALID,1.55547,
2012-03-14, 00:37:04,VALID,918.794,VALID,0,VALID,83.9491,VALID,0,VALID,21.2811,VALID,123,VALID,1.89258,
2012-03-14, 00:38:04,VALID,918.779,VALID,0,VALID,83.5145,VALID,0,VALID,21.3022,VALID,134,VALID,2.19102,
2012-03-14, 00:39:04,VALID,918.81,VALID,0,VALID,83.9109,VALID,0,VALID,21.3006,VALID,127,VALID,1.63594,
2012-03-14, 00:40:04,VALID,918.81,VALID,0,VALID,83.4535,VALID,0,VALID,21.3006,VALID,128,VALID,1.71836,
2012-03-14, 00:41:04,VALID,918.791,VALID,0,VALID,83.5679,VALID,0,VALID,21.3006,VALID,136,VALID,1.51563,
2012-03-14, 00:42:04,VALID,918.761,VALID,0,VALID,83.2706,VALID,0,VALID,21.2795,VALID,133,VALID,2.18438,
2012-03-14, 00:43:04,VALID,918.753,VALID,0,VALID,83.2934,VALID,0,VALID,21.3396,VALID,127,VALID,2.04688,
2012-03-14, 00:44:04,VALID,918.751,VALID,0,VALID,83.2401,VALID,0,VALID,21.3608,VALID,129,VALID,1.61367,
2012-03-14, 00:45:04,VALID,918.732,VALID,0,VALID,83.141,VALID,0,VALID,21.3396,VALID,142,VALID,1.52539,
2012-03-14, 00:46:04,VALID,918.736,VALID,0,VALID,83.1334,VALID,0,VALID,21.3575,VALID,139,VALID,1.51992,
2012-03-14, 00:47:04,VALID,918.72,VALID,0,VALID,82.6836,VALID,0,VALID,21.3786,VALID,145,VALID,1.70859,
2012-03-14, 00:48:04,VALID,918.721,VALID,0,VALID,82.6836,VALID,0,VALID,21.3786,VALID,134,VALID,2.52656,
2012-03-14, 00:49:04,VALID,918.71,VALID,0,VALID,82.3329,VALID,0,VALID,21.4372,VALID,148,VALID,2.3125,
2012-03-14, 00:50:04,VALID,918.708,VALID,0,VALID,82.2262,VALID,0,VALID,21.4762,VALID,134,VALID,1.9707,
2012-03-14, 00:51:04,VALID,918.695,VALID,0,VALID,82.2643,VALID,0,VALID,21.4762,VALID,120,VALID,1.52734,
2012-03-14, 00:52:04,VALID,918.702,VALID,0,VALID,82.4625,VALID,0,VALID,21.4762,VALID,126,VALID,1.51055,
2012-03-14, 00:53:04,VALID,918.692,VALID,0,VALID,82.7293,VALID,0,VALID,21.4177,VALID,126,VALID,1.23789,
2012-03-14, 00:54:04,VALID,918.708,VALID,0,VALID,82.8437,VALID,0,VALID,21.3786,VALID,121,VALID,1.07578,
2012-03-14, 00:55:04,VALID,918.686,VALID,0,VALID,83.019,VALID,0,VALID,21.3591,VALID,124,VALID,1.28672,
2012-03-14, 00:56:04,VALID,918.662,VALID,0,VALID,83.141,VALID,0,VALID,21.3201,VALID,128,VALID,0.86875,
2012-03-14, 00:57:04,VALID,918.612,VALID,0,VALID,83.0952,VALID,0,VALID,21.3396,VALID,151,VALID,1.7125,
2012-03-14, 00:58:04,VALID,918.635,VALID,0,VALID,83.1638,VALID,0,VALID,21.3201,VALID,123,VALID,1.56406,
2012-03-14, 00:59:04,VALID,918.598,VALID,0,VALID,83.3925,VALID,0,VALID,21.3201,VALID,151,VALID,1.17031,
2012-03-14, 01:00:04,VALID,918.595,VALID,0,VALID,83.2934,VALID,0,VALID,21.3006,VALID,127,VALID,1.13086,
2012-03-14, 01:01:04,VALID,918.575,VALID,0,VALID,83.7127,VALID,0,VALID,21.2811,VALID,117,VALID,1.21563,
2012-03-14, 01:02:04,VALID,918.541,VALID,0,VALID,83.8804,VALID,0,VALID,21.2226,VALID,129,VALID,1.42305,
2012-03-14, 01:03:04,VALID,918.572,VALID,0,VALID,83.9109,VALID,0,VALID,21.2031,VALID,135,VALID,1.91875,
2012-03-14, 01:04:04,VALID,918.572,VALID,0,VALID,83.9567,VALID,0,VALID,21.2031,VALID,120,VALID,1.61641,
2012-03-14, 01:05:04,VALID,918.547,VALID,0,VALID,84.2006,VALID,0,VALID,21.1836,VALID,119,VALID,1.15742,
2012-03-14, 01:06:04,VALID,918.549,VALID,0,VALID,83.9719,VALID,0,VALID,21.164,VALID,120,VALID,1.46484,
2012-03-14, 01:07:04,VALID,918.547,VALID,0,VALID,84.1015,VALID,0,VALID,21.164,VALID,134,VALID,1.16328,
2012-03-14, 01:08:04,VALID,918.55,VALID,0,VALID,84.2311,VALID,0,VALID,21.164,VALID,142,VALID,1.15898,
2012-03-14, 01:09:04,VALID,918.528,VALID,0,VALID,83.7585,VALID,0.107441,VALID,21.1624,VALID,138,VALID,1.62852,
2012-03-14, 01:10:04,VALID,918.501,VALID,0,VALID,83.5526,VALID,0,VALID,21.1819,VALID,136,VALID,1.70352,
2012-03-14, 01:11:04,VALID,918.451,VALID,0,VALID,83.3621,VALID,0,VALID,21.1819,VALID,158,VALID,1.41445,
2012-03-14, 01:12:04,VALID,918.487,VALID,0,VALID,83.6975,VALID,0,VALID,21.2015,VALID,155,VALID,1.14883,
2012-03-14, 01:13:04,VALID,918.491,VALID,0,VALID,83.7204,VALID,0,VALID,21.2015,VALID,136,VALID,1.11484,
2012-03-14, 01:14:04,VALID,918.489,VALID,0,VALID,83.7585,VALID,0,VALID,21.2015,VALID,140,VALID,0.646484,
2012-03-14, 01:15:04,VALID,918.456,VALID,0,VALID,83.5069,VALID,0,VALID,21.1819,VALID,176,VALID,0.916797,
2012-03-14, 01:16:04,VALID,918.448,VALID,0,VALID,84.0024,VALID,0,VALID,21.2031,VALID,152,VALID,0.823828,
2012-03-14, 01:17:04,VALID,918.437,VALID,0,VALID,83.6746,VALID,0,VALID,21.1819,VALID,173,VALID,1.21523,
2012-03-14, 01:18:04,VALID,918.444,VALID,0,VALID,83.2782,VALID,0,VALID,21.1819,VALID,158,VALID,1.84766,
2012-03-14, 01:19:04,VALID,918.449,VALID,0,VALID,83.6746,VALID,0,VALID,21.2405,VALID,170,VALID,0.935938,
2012-03-14, 01:20:04,VALID,918.396,VALID,0,VALID,83.5298,VALID,0.107441,VALID,21.221,VALID,170,VALID,1.07461,
2012-03-14, 01:21:04,VALID,918.385,VALID,0,VALID,83.7813,VALID,0,VALID,21.221,VALID,171,VALID,0.858203,
2012-03-14, 01:22:04,VALID,918.383,VALID,0,VALID,83.8347,VALID,0,VALID,21.221,VALID,155,VALID,0.903516,
2012-03-14, 01:23:04,VALID,918.41,VALID,0,VALID,83.8881,VALID,0,VALID,21.2015,VALID,155,VALID,1.23047,
2012-03-14, 01:24:04,VALID,918.404,VALID,0,VALID,83.7585,VALID,0,VALID,21.1429,VALID,154,VALID,1.37656,
2012-03-14, 01:25:04,VALID,918.385,VALID,0,VALID,84.0482,VALID,0,VALID,21.1429,VALID,131,VALID,0.958984,
2012-03-14, 01:26:04,VALID,918.368,VALID,0,VALID,83.8423,VALID,0,VALID,21.1429,VALID,131,VALID,1.35078,
2012-03-14, 01:27:04,VALID,918.393,VALID,0,VALID,83.5298,VALID,0,VALID,21.1624,VALID,138,VALID,1.46016,
2012-03-14, 01:28:04,VALID,918.357,VALID,0,VALID,83.4383,VALID,0,VALID,21.1624,VALID,136,VALID,1.62891,
2012-03-14, 01:29:04,VALID,918.301,VALID,0,VALID,83.5526,VALID,0,VALID,21.1819,VALID,137,VALID,1.50469,
2012-03-14, 01:30:04,VALID,918.328,VALID,0,VALID,83.6746,VALID,0,VALID,21.1819,VALID,131,VALID,0.937891,
2012-03-14, 01:31:04,VALID,918.303,VALID,0,VALID,83.6441,VALID,0,VALID,21.1624,VALID,135,VALID,1.38047,
2012-03-14, 01:32:04,VALID,918.271,VALID,0,VALID,83.3697,VALID,0,VALID,21.1624,VALID,130,VALID,1.40273,
2012-03-14, 01:33:04,VALID,918.291,VALID,0,VALID,84.0787,VALID,0,VALID,21.1608,VALID,136,VALID,1.34961,
2012-03-14, 01:34:04,VALID,918.277,VALID,0,VALID,84.1625,VALID,0,VALID,21.1218,VALID,129,VALID,1.15547,
2012-03-14, 01:35:04,VALID,918.254,VALID,0,VALID,84.2159,VALID,0,VALID,21.0844,VALID,119,VALID,0.992578,
2012-03-14, 01:36:04,VALID,918.259,VALID,0,VALID,84.0024,VALID,0,VALID,21.0844,VALID,119,VALID,1.83672,
2012-03-14, 01:37:04,VALID,918.297,VALID,0,VALID,84.132,VALID,0,VALID,21.125,VALID,131,VALID,1.33008,
2012-03-14, 01:38:04,VALID,918.263,VALID,0,VALID,84.2921,VALID,0,VALID,21.0844,VALID,129,VALID,1.12656,
2012-03-14, 01:39:04,VALID,918.258,VALID,0,VALID,84.3683,VALID,0.107441,VALID,21.0844,VALID,119,VALID,0.898438,
2012-03-14, 01:40:04,VALID,918.249,VALID,0,VALID,84.658,VALID,0.107441,VALID,21.0649,VALID,119,VALID,0.805469,
2012-03-14, 01:41:04,VALID,918.212,VALID,0,VALID,84.9401,VALID,0,VALID,21.0259,VALID,119,VALID,0.744531,
2012-03-14, 01:42:04,VALID,918.217,VALID,0,VALID,85.0621,VALID,0,VALID,20.9869,VALID,119,VALID,1.3832,
2012-03-14, 01:43:04,VALID,918.199,VALID,0,VALID,85.0849,VALID,0,VALID,20.9479,VALID,119,VALID,1.03711,
2012-03-14, 01:44:04,VALID,918.194,VALID,0,VALID,85.1536,VALID,0.107441,VALID,20.9479,VALID,119,VALID,0.978125,
2012-03-14, 01:45:04,VALID,918.185,VALID,0,VALID,84.7876,VALID,0,VALID,20.9479,VALID,119,VALID,1.69883,
2012-03-14, 01:46:04,VALID,918.176,VALID,0,VALID,84.9249,VALID,0,VALID,20.9479,VALID,119,VALID,1.24453,
2012-03-14, 01:47:04,VALID,918.138,VALID,0,VALID,85.0392,VALID,0.107441,VALID,20.9674,VALID,119,VALID,0.813672,
2012-03-14, 01:48:04,VALID,918.152,VALID,0,VALID,85.0011,VALID,0,VALID,21.0064,VALID,119,VALID,0.823828,
2012-03-14, 01:49:04,VALID,918.134,VALID,0,VALID,85.1841,VALID,0,VALID,20.9869,VALID,119,VALID,0.794141,
2012-03-14, 01:50:04,VALID,918.131,VALID,0,VALID,85.2908,VALID,0.107441,VALID,20.9284,VALID,119,VALID,0.6,
2012-03-14, 01:51:04,VALID,918.132,VALID,0,VALID,86.1522,VALID,0,VALID,20.8699,VALID,119,VALID,0.758203,
2012-03-14, 01:52:04,VALID,918.153,VALID,0,VALID,86.1903,VALID,0,VALID,20.8113,VALID,119,VALID,0.907812,
2012-03-14, 01:53:04,VALID,918.144,VALID,0,VALID,86.3885,VALID,0,VALID,20.7528,VALID,119,VALID,0.548047,
2012-03-14, 01:54:04,VALID,918.145,VALID,0,VALID,86.3885,VALID,0.107441,VALID,20.7333,VALID,119,VALID,0.525781,
2012-03-14, 01:55:04,VALID,918.131,VALID,0,VALID,86.4572,VALID,0,VALID,20.7138,VALID,119,VALID,0.556641,
2012-03-14, 01:56:04,VALID,918.169,VALID,0,VALID,86.6477,VALID,0,VALID,20.7138,VALID,119,VALID,0.287891,
2012-03-14, 01:57:04,VALID,918.19,VALID,0,VALID,86.7621,VALID,0,VALID,20.6943,VALID,119,VALID,0.0945313,
2012-03-14, 01:58:04,VALID,918.163,VALID,0,VALID,86.8993,VALID,0,VALID,20.6959,VALID,119,VALID,0,
2012-03-14, 01:59:04,VALID,918.171,VALID,0,VALID,88.1419,VALID,0,VALID,20.7138,VALID,119,VALID,0.343359,
2012-03-14, 02:00:04,VALID,918.174,VALID,0,VALID,89.4074,VALID,0,VALID,20.6553,VALID,119,VALID,0.651172,
2012-03-14, 02:01:04,VALID,918.207,VALID,0,VALID,90.2079,VALID,0.107441,VALID,20.5383,VALID,119,VALID,0.649609,
2012-03-14, 02:02:04,VALID,918.201,VALID,0,VALID,90.5204,VALID,0,VALID,20.4197,VALID,119,VALID,0.780469,
2012-03-14, 02:03:04,VALID,918.2,VALID,0,VALID,90.8406,VALID,0,VALID,20.3628,VALID,119,VALID,0.277344,
2012-03-14, 02:04:04,VALID,918.189,VALID,0,VALID,91.0922,VALID,0.107441,VALID,20.2848,VALID,119,VALID,0,
2012-03-14, 02:05:04,VALID,918.172,VALID,0,VALID,91.3666,VALID,0,VALID,20.2263,VALID,119,VALID,0,
2012-03-14, 02:06:04,VALID,918.158,VALID,0,VALID,91.5191,VALID,0,VALID,20.1662,VALID,119,VALID,0.287891,
2012-03-14, 02:07:04,VALID,918.147,VALID,0,VALID,91.8317,VALID,0,VALID,20.1483,VALID,119,VALID,0.238672,
2012-03-14, 02:08:04,VALID,918.134,VALID,0,VALID,92.1137,VALID,0,VALID,20.1108,VALID,119,VALID,0.521094,
2012-03-14, 02:09:04,VALID,918.129,VALID,0,VALID,92.3272,VALID,0,VALID,20.0313,VALID,119,VALID,0.0191406,
2012-03-14, 02:10:04,VALID,918.146,VALID,0,VALID,92.3501,VALID,0,VALID,20.0328,VALID,119,VALID,0,
2012-03-14, 02:11:04,VALID,918.122,VALID,0,VALID,92.4949,VALID,0,VALID,19.9728,VALID,119,VALID,0,
2012-03-14, 02:12:04,VALID,918.12,VALID,0,VALID,92.5559,VALID,0,VALID,19.9533,VALID,119,VALID,0,
2012-03-14, 02:13:04,VALID,918.14,VALID,0,VALID,92.6169,VALID,0,VALID,19.9743,VALID,119,VALID,0,
2012-03-14, 02:14:04,VALID,918.092,VALID,0,VALID,92.6626,VALID,0,VALID,19.9338,VALID,119,VALID,0,
2012-03-14, 02:15:04,VALID,918.107,VALID,0,VALID,92.8227,VALID,0,VALID,19.9548,VALID,119,VALID,0,
2012-03-14, 02:16:04,VALID,918.095,VALID,0,VALID,92.8685,VALID,0,VALID,19.9338,VALID,119,VALID,0,
2012-03-14, 02:17:04,VALID,918.073,VALID,0,VALID,92.8151,VALID,0,VALID,19.9353,VALID,119,VALID,0,
2012-03-14, 02:18:04,VALID,918.076,VALID,0,VALID,92.716,VALID,0,VALID,19.9128,VALID,119,VALID,0,
2012-03-14, 02:19:04,VALID,918.062,VALID,0,VALID,92.838,VALID,0,VALID,19.9338,VALID,119,VALID,0,
2012-03-14, 02:20:04,VALID,918.079,VALID,0,VALID,92.6855,VALID,0,VALID,19.9338,VALID,119,VALID,0,
2012-03-14, 02:21:04,VALID,918.063,VALID,0,VALID,92.4568,VALID,0.107441,VALID,19.9548,VALID,119,VALID,0.194531,
2012-03-14, 02:22:04,VALID,918.067,VALID,0,VALID,92.2433,VALID,0.107441,VALID,19.9323,VALID,119,VALID,0.447656,
2012-03-14, 02:23:04,VALID,918.066,VALID,0,VALID,92.007,VALID,0,VALID,19.9338,VALID,119,VALID,0.410937,
2012-03-14, 02:24:04,VALID,918.043,VALID,0,VALID,91.6716,VALID,0,VALID,19.9338,VALID,119,VALID,0.283203,
2012-03-14, 02:25:04,VALID,918.026,VALID,0,VALID,91.1532,VALID,0,VALID,19.9548,VALID,119,VALID,0.455078,
2012-03-14, 02:26:04,VALID,918.018,VALID,0,VALID,90.5967,VALID,0,VALID,19.9743,VALID,119,VALID,0.162109,
2012-03-14, 02:27:04,VALID,918.011,VALID,0,VALID,90.5814,VALID,0,VALID,19.9923,VALID,119,VALID,0.292578,
2012-03-14, 02:28:04,VALID,918.001,VALID,0,VALID,90.4976,VALID,0,VALID,20.0718,VALID,119,VALID,0,
2012-03-14, 02:29:04,VALID,917.992,VALID,0,VALID,90.8787,VALID,0,VALID,20.0508,VALID,119,VALID,0,
2012-03-14, 02:30:04,VALID,917.982,VALID,0,VALID,90.8559,VALID,0,VALID,20.0718,VALID,119,VALID,0,
2012-03-14, 02:31:04,VALID,917.953,VALID,0,VALID,90.7568,VALID,0,VALID,20.0523,VALID,119,VALID,0,
2012-03-14, 02:32:04,VALID,917.945,VALID,0,VALID,90.6653,VALID,0,VALID,20.0523,VALID,119,VALID,0,
2012-03-14, 02:33:04,VALID,917.931,VALID,0,VALID,90.6805,VALID,0,VALID,20.0313,VALID,119,VALID,0,
2012-03-14, 02:34:04,VALID,917.944,VALID,0,VALID,90.5433,VALID,0,VALID,20.0718,VALID,119,VALID,0,
2012-03-14, 02:35:04,VALID,917.914,VALID,0,VALID,90.1164,VALID,0,VALID,20.0718,VALID,119,VALID,0,
2012-03-14, 02:36:04,VALID,917.909,VALID,0,VALID,90.772,VALID,0,VALID,20.0913,VALID,119,VALID,0.434766,
2012-03-14, 02:37:04,VALID,917.94,VALID,0,VALID,91.42,VALID,0,VALID,20.0523,VALID,119,VALID,0.750781,
2012-03-14, 02:38:04,VALID,917.962,VALID,0,VALID,91.5648,VALID,0,VALID,20.0133,VALID,119,VALID,0.726172,
2012-03-14, 02:39:04,VALID,917.936,VALID,0,VALID,91.4048,VALID,0,VALID,19.9338,VALID,119,VALID,1.01055,
2012-03-14, 02:40:04,VALID,917.911,VALID,0,VALID,91.1074,VALID,0,VALID,19.9743,VALID,119,VALID,0.833594,
2012-03-14, 02:41:04,VALID,917.907,VALID,0,VALID,91.077,VALID,0,VALID,20.0343,VALID,119,VALID,0.674609,
2012-03-14, 02:42:04,VALID,917.906,VALID,0,VALID,90.9702,VALID,0,VALID,20.0133,VALID,119,VALID,0.642187,
2012-03-14, 02:43:04,VALID,917.873,VALID,0,VALID,91.1532,VALID,0,VALID,20.0328,VALID,119,VALID,0.3625,
2012-03-14, 02:44:04,VALID,917.92,VALID,0,VALID,90.9397,VALID,0,VALID,20.0133,VALID,119,VALID,0.378906,
2012-03-14, 02:45:04,VALID,917.874,VALID,0,VALID,90.772,VALID,0,VALID,19.9923,VALID,119,VALID,0.328906,
2012-03-14, 02:46:04,VALID,917.875,VALID,0,VALID,90.246,VALID,0,VALID,20.0133,VALID,119,VALID,0.375391,
2012-03-14, 02:47:04,VALID,917.845,VALID,0,VALID,89.6056,VALID,0,VALID,20.0718,VALID,119,VALID,0.25625,
2012-03-14, 02:48:04,VALID,917.894,VALID,0,VALID,88.9576,VALID,0,VALID,20.1498,VALID,119,VALID,0.283594,
2012-03-14, 02:49:04,VALID,917.874,VALID,0,VALID,89.4684,VALID,0,VALID,20.1888,VALID,119,VALID,0.147656,
2012-03-14, 02:50:04,VALID,917.864,VALID,0,VALID,89.2168,VALID,0,VALID,20.1888,VALID,119,VALID,0.211719,
2012-03-14, 02:51:04,VALID,917.909,VALID,0,VALID,89.0186,VALID,0,VALID,20.1873,VALID,119,VALID,0,
2012-03-14, 02:52:04,VALID,917.901,VALID,0,VALID,89.5828,VALID,0,VALID,20.1873,VALID,119,VALID,0,
2012-03-14, 02:53:04,VALID,917.912,VALID,0,VALID,88.4545,VALID,0,VALID,20.1693,VALID,119,VALID,0,
2012-03-14, 02:54:04,VALID,917.901,VALID,0,VALID,88.7823,VALID,0,VALID,20.1873,VALID,119,VALID,0,
2012-03-14, 02:55:04,VALID,917.905,VALID,0,VALID,88.2792,VALID,0,VALID,20.1888,VALID,119,VALID,0,
2012-03-14, 02:56:04,VALID,917.879,VALID,0,VALID,89.0491,VALID,0,VALID,20.2068,VALID,119,VALID,0,
2012-03-14, 02:57:04,VALID,917.851,VALID,0,VALID,88.7366,VALID,0,VALID,20.2668,VALID,119,VALID,0,
2012-03-14, 02:58:04,VALID,917.844,VALID,0,VALID,87.715,VALID,0,VALID,20.3058,VALID,119,VALID,0.384375,
2012-03-14, 02:59:04,VALID,917.816,VALID,0,VALID,87.4711,VALID,0,VALID,20.3838,VALID,119,VALID,0.250781,
2012-03-14, 03:00:04,VALID,917.824,VALID,0,VALID,86.5486,VALID,0,VALID,20.4033,VALID,119,VALID,0.458203,
2012-03-14, 03:01:04,VALID,917.789,VALID,0,VALID,85.8168,VALID,0,VALID,20.4213,VALID,119,VALID,0.385938,
2012-03-14, 03:02:04,VALID,917.779,VALID,0,VALID,86.1598,VALID,0,VALID,20.4618,VALID,119,VALID,0.422656,
2012-03-14, 03:03:04,VALID,917.795,VALID,0,VALID,86.076,VALID,0,VALID,20.4798,VALID,119,VALID,0.552344,
2012-03-14, 03:04:04,VALID,917.803,VALID,0,VALID,85.367,VALID,0,VALID,20.5204,VALID,119,VALID,0.392969,
2012-03-14, 03:05:04,VALID,917.796,VALID,0,VALID,86.6401,VALID,0,VALID,20.5789,VALID,119,VALID,0,
2012-03-14, 03:06:04,VALID,917.757,VALID,0,VALID,86.7773,VALID,0,VALID,20.5399,VALID,119,VALID,0.0167969,
2012-03-14, 03:07:04,VALID,917.751,VALID,0,VALID,86.9679,VALID,0,VALID,20.5204,VALID,119,VALID,0.0386719,
2012-03-14, 03:08:04,VALID,917.762,VALID,0,VALID,86.663,VALID,0,VALID,20.4798,VALID,119,VALID,0.304297,
2012-03-14, 03:09:04,VALID,917.727,VALID,0,VALID,86.7468,VALID,0,VALID,20.4798,VALID,119,VALID,0.512109,
2012-03-14, 03:10:04,VALID,917.726,VALID,0,VALID,86.3276,VALID,0,VALID,20.5009,VALID,119,VALID,0.525,
2012-03-14, 03:11:04,VALID,917.723,VALID,0,VALID,86.4114,VALID,0,VALID,20.5204,VALID,119,VALID,0.305469,
2012-03-14, 03:12:04,VALID,917.688,VALID,0,VALID,86.602,VALID,0,VALID,20.4993,VALID,119,VALID,0.317187,
2012-03-14, 03:13:04,VALID,917.716,VALID,0,VALID,87.3186,VALID,0,VALID,20.4993,VALID,119,VALID,0.512109,
2012-03-14, 03:14:04,VALID,917.675,VALID,0,VALID,87.4939,VALID,0,VALID,20.4618,VALID,119,VALID,0.709375,
2012-03-14, 03:15:05,VALID,917.663,VALID,0,VALID,87.654,VALID,0,VALID,20.4033,VALID,179,VALID,0.537891,
2012-03-14, 03:16:05,VALID,917.666,VALID,0,VALID,87.4634,VALID,0,VALID,20.3448,VALID,179,VALID,0.444922,
2012-03-14, 03:17:05,VALID,917.675,VALID,0,VALID,87.2652,VALID,0,VALID,20.3238,VALID,179,VALID,0.583984,
2012-03-14, 03:18:05,VALID,917.685,VALID,0,VALID,87.1356,VALID,0,VALID,20.3238,VALID,179,VALID,0.424219,
2012-03-14, 03:19:05,VALID,917.676,VALID,0,VALID,87.1356,VALID,0,VALID,20.3643,VALID,179,VALID,0.379297,
2012-03-14, 03:20:05,VALID,917.69,VALID,0,VALID,87.898,VALID,0,VALID,20.3838,VALID,179,VALID,0,
2012-03-14, 03:21:05,VALID,917.684,VALID,0,VALID,88.2715,VALID,0,VALID,20.3448,VALID,179,VALID,0,
2012-03-14, 03:22:05,VALID,917.659,VALID,0,VALID,88.8967,VALID,0,VALID,20.2879,VALID,179,VALID,0,
2012-03-14, 03:23:05,VALID,917.631,VALID,0,VALID,89.1559,VALID,0,VALID,20.1483,VALID,179,VALID,0,
2012-03-14, 03:24:05,VALID,917.607,VALID,0,VALID,89.194,VALID,0,VALID,20.0913,VALID,179,VALID,0,
2012-03-14, 03:25:05,VALID,917.633,VALID,0,VALID,89.1635,VALID,0,VALID,20.0718,VALID,179,VALID,0,
2012-03-14, 03:26:05,VALID,917.599,VALID,0,VALID,89.4989,VALID,0,VALID,20.0328,VALID,179,VALID,0,
2012-03-14, 03:27:05,VALID,917.595,VALID,0,VALID,90.1621,VALID,0,VALID,20.0118,VALID,179,VALID,0,
2012-03-14, 03:28:05,VALID,917.57,VALID,0,VALID,90.2841,VALID,0,VALID,19.9533,VALID,179,VALID,0,
2012-03-14, 03:29:05,VALID,917.562,VALID,0,VALID,90.711,VALID,0,VALID,19.8963,VALID,179,VALID,0,
2012-03-14, 03:30:05,VALID,917.559,VALID,0,VALID,91.0922,VALID,0,VALID,19.7988,VALID,179,VALID,0,
2012-03-14, 03:31:05,VALID,917.542,VALID,0,VALID,91.2294,VALID,0,VALID,19.7208,VALID,179,VALID,0,
2012-03-14, 03:32:05,VALID,917.506,VALID,0,VALID,91.3057,VALID,0,VALID,19.6608,VALID,179,VALID,0,
2012-03-14, 03:33:05,VALID,917.517,VALID,0,VALID,91.2294,VALID,0,VALID,19.6413,VALID,179,VALID,0,
2012-03-14, 03:34:05,VALID,917.5,VALID,0,VALID,91.1379,VALID,0,VALID,19.6623,VALID,179,VALID,0,
2012-03-14, 03:35:05,VALID,917.503,VALID,0,VALID,90.9626,VALID,0.107441,VALID,19.6998,VALID,179,VALID,0,
2012-03-14, 03:36:05,VALID,917.508,VALID,0,VALID,91.1303,VALID,0,VALID,19.7598,VALID,179,VALID,0,
2012-03-14, 03:37:05,VALID,917.513,VALID,0,VALID,91.0617,VALID,0,VALID,19.7388,VALID,179,VALID,0,
2012-03-14, 03:38:05,VALID,917.494,VALID,0,VALID,90.7187,VALID,0,VALID,19.7988,VALID,179,VALID,0.514844,
2012-03-14, 03:39:05,VALID,917.509,VALID,0,VALID,90.6577,VALID,0,VALID,19.8378,VALID,179,VALID,0.469531,
2012-03-14, 03:40:05,VALID,917.484,VALID,0,VALID,90.3146,VALID,0,VALID,19.8558,VALID,179,VALID,0.467969,
2012-03-14, 03:41:05,VALID,917.518,VALID,0,VALID,90.2841,VALID,0,VALID,19.9158,VALID,179,VALID,0.301953,
2012-03-14, 03:42:05,VALID,917.502,VALID,0,VALID,90.429,VALID,0,VALID,19.8948,VALID,179,VALID,0.437109,
2012-03-14, 03:43:05,VALID,917.504,VALID,0,VALID,90.7873,VALID,0,VALID,19.8963,VALID,179,VALID,0.163281,
2012-03-14, 03:44:05,VALID,917.463,VALID,0,VALID,90.8483,VALID,0,VALID,19.8768,VALID,179,VALID,0.510156,
2012-03-14, 03:45:05,VALID,917.487,VALID,0,VALID,90.9245,VALID,0,VALID,19.8573,VALID,179,VALID,0.519922,
2012-03-14, 03:46:05,VALID,917.476,VALID,0,VALID,90.8711,VALID,0,VALID,19.8768,VALID,179,VALID,0.684766,
2012-03-14, 03:47:05,VALID,917.476,VALID,0,VALID,90.4213,VALID,0,VALID,19.8948,VALID,179,VALID,0.597656,